RH
67 63 61 61 61 61 62 65 67 68 67 65 64 64 64 63 62 60 58 55 50 46 44 47 52 51 47 46 44 45 49 55 61 63 63 63 66 69 66 59 53 52 51 48 44 51 73 91 95 97 99 101 101 101 101 100 100 101 102 101 100 102 103 103 103 101 101 101 101 100 101 102 100 94 85 76 69 64 56 46 37 33 32 31 30 31
85 79 76 75 74 73 73 74 74 72 70 69 68 68 66 64 60 57 53 49 44 43 48 59 69 66 63 64 59 52 50 53 60 63 63 61 61 62 64 69 72 68 60 56 53 50 59 80 97 104 103 100 99 101 100 99 100 100 100 101 100 100 102 101 101 101 101 102 102 100 97 93 88 83 76 70 63 55 49 42 36 33 34 37 36 34
90 83 83 83 80 77 75 75 74 72 70 68 66 64 61 58 54 50 47 43 40 44 54 69 83 88 89 84 68 56 52 53 57 59 59 57 56 57 60 67 76 77 70 66 66 61 55 60 76 92 102 103 99 99 100 100 100 100 100 100 100 100 101 100 101 101 101 101 98 92 85 77 74 73 70 65 56 49 47 44 42 42 41 42 42 40
87 85 86 87 84 79 75 73 71 69 66 64 60 58 55 52 49 45 43 41 38 46 58 71 87 97 94 82 65 58 57 54 54 56 58 55 50 51 57 62 66 69 72 77 80 77 73 67 66 74 88 100 104 102 101 100 100 100 100 100 101 101 100 101 101 100 101 101 96 87 77 70 67 67 64 57 50 47 48 48 55 59 50 46 50 47
87 87 85 84 82 76 71 68 66 63 60 57 54 54 51 48 47 46 45 44 44 53 66 75 82 86 82 71 61 61 62 57 55 57 58 54 48 47 51 53 54 57 67 82 90 88 88 88 85 77 71 78 95 104 103 101 101 100 100 100 100 100 100 100 100 101 101 100 97 87 77 71 68 66 60 52 49 51 56 59 71 76 58 47 54 53
86 84 78 74 71 67 65 61 59 57 54 53 52 53 50 48 50 50 50 53 58 65 73 77 79 76 70 64 64 64 61 56 55 57 56 52 48 46 45 44 48 53 59 71 81 86 91 94 93 87 77 77 90 101 103 102 101 101 101 101 101 101 101 101 101 102 101 99 94 84 77 74 70 63 57 52 53 59 65 66 74 81 64 49 54 59
80 75 69 67 66 63 60 56 55 54 53 54 56 56 53 51 51 53 59 68 72 70 69 72 76 76 70 65 66 64 53 48 50 52 51 50 49 47 44 45 53 60 60 62 66 72 76 79 81 83 84 86 93 101 103 102 101 101 101 101 101 100 100 101 102 101 98 94 87 78 77 76 70 68 68 65 66 72 76 76 78 83 72 57 55 60
71 67 65 64 62 60 57 55 51 49 52 58 62 60 55 55 60 67 75 79 74 66 62 62 68 80 86 77 65 57 47 42 43 45 47 48 50 50 47 53 66 73 69 64 63 63 62 63 68 74 77 80 85 90 94 97 97 96 96 95 95 94 93 91 90 89 88 85 81 77 79 81 80 87 92 84 83 89 94 95 93 92 85 71 62 61
67 63 63 63 63 66 63 55 50 52 62 69 73 75 72 75 80 79 78 74 65 63 64 65 73 86 93 85 69 57 52 46 42 45 48 48 49 49 48 53 66 73 70 65 65 66 67 67 66 65 66 70 76 79 80 80 81 80 80 79 78 76 74 71 70 74 76 80 87 90 92 93 87 91 98 94 92 95 98 101 101 100 95 80 69 68
72 63 58 67 81 83 72 60 61 71 80 83 89 96 95 93 88 76 70 65 61 66 73 80 90 92 84 82 79 73 67 57 47 46 51 51 49 48 49 54 59 62 62 62 67 75 79 80 73 63 61 67 73 74 72 70 68 65 63 62 63 62 61 62 66 71 76 88 101 103 96 83 70 77 92 95 95 98 99 100 102 103 97 81 72 75
71 61 62 82 99 98 87 83 86 90 94 95 99 103 100 99 96 81 69 64 63 72 84 91 95 87 77 81 85 82 75 63 52 50 53 55 52 49 52 57 57 56 54 55 65 77 80 78 75 70 69 75 76 73 70 67 63 61 59 57 58 58 58 59 63 69 78 92 101 96 88 76 65 71 84 92 98 99 99 101 102 100 91 78 72 76
68 69 84 101 107 104 98 94 94 97 102 104 102 100 99 104 107 97 82 74 71 78 90 94 88 76 75 86 90 84 73 58 52 51 50 52 52 49 50 52 51 50 53 59 67 70 68 70 76 75 73 75 75 73 72 71 69 67 61 56 54 55 56 56 60 66 74 89 99 94 95 95 87 79 80 93 102 98 99 103 98 88 79 74 73 75
75 79 97 110 109 106 103 97 95 98 103 106 103 101 104 107 110 109 101 92 84 85 90 89 84 74 70 77 83 80 67 53 49 50 49 50 52 50 47 46 46 46 50 57 62 59 62 72 76 71 67 67 67 69 71 72 72 71 66 59 53 51 54 56 62 69 75 88 101 101 101 103 101 93 90 97 101 97 101 99 85 76 71 68 70 75
85 85 93 108 112 107 107 105 102 103 105 106 103 104 108 108 107 107 104 99 94 94 93 85 78 73 64 62 67 68 63 58 56 55 55 53 52 53 52 50 51 51 50 50 47 47 57 69 71 70 68 65 63 62 64 67 69 70 67 58 52 53 60 63 63 68 79 91 102 104 101 101 104 100 96 99 97 95 99 93 81 79 77 67 62 70
95 92 90 104 113 108 108 110 106 107 109 104 98 102 107 107 107 106 103 104 102 98 95 85 73 69 66 65 66 66 65 66 64 61 60 58 56 57 56 56 56 54 51 48 48 48 52 57 59 64 68 68 69 65 62 61 58 59 59 62 74 82 85 88 76 64 72 88 100 104 102 102 104 100 98 101 98 95 98 96 91 91 88 76 64 62
97 98 95 102 109 106 108 107 102 104 107 103 100 105 104 98 103 106 102 104 103 95 91 84 75 72 73 72 73 72 70 71 70 65 63 65 67 66 62 61 59 54 48 45 49 51 52 54 55 57 60 63 68 69 69 66 58 54 55 70 95 97 93 103 90 63 61 78 96 107 105 102 102 100 99 101 99 99 101 98 99 100 94 84 76 68
94 101 102 104 107 108 110 106 101 104 107 107 106 104 96 88 94 100 98 99 98 91 86 81 76 74 76 77 79 77 75 76 75 70 70 77 84 82 74 70 66 59 49 43 43 43 44 48 52 55 56 57 58 60 64 67 64 63 62 74 93 93 95 106 91 70 72 83 96 105 103 100 100 100 101 102 100 100 101 98 97 101 97 89 84 78
92 104 105 103 101 102 104 103 103 108 109 107 101 95 90 86 88 92 93 91 88 83 80 77 75 77 81 84 84 83 83 86 85 79 79 87 95 95 90 84 76 67 58 48 42 39 39 41 44 48 51 52 54 54 55 59 61 65 66 75 90 97 102 99 86 85 94 98 103 105 102 102 101 101 103 99 90 87 96 101 98 97 95 90 88 83
99 108 102 95 94 94 94 98 103 105 103 101 94 89 88 84 81 81 81 81 80 79 79 78 78 83 90 93 92 93 95 97 94 89 87 93 99 100 97 89 78 71 65 57 48 44 43 43 43 45 47 49 52 53 52 52 54 58 61 68 80 94 104 99 89 94 103 105 105 102 101 102 99 100 100 92 85 86 95 101 97 95 92 87 88 87
98 103 95 89 93 98 99 103 106 102 98 100 99 96 95 90 84 80 76 75 76 79 81 82 83 88 95 99 100 100 100 101 99 96 95 98 101 101 96 87 78 73 68 62 57 53 50 49 48 50 51 53 55 55 54 52 51 53 57 64 71 82 97 97 86 87 98 106 102 96 101 107 103 102 100 96 96 98 100 99 95 94 93 90 90 90
96 100 99 97 101 106 107 109 109 102 98 101 103 100 96 96 96 92 87 83 81 81 83 85 88 92 98 102 103 103 101 102 104 105 105 106 105 103 98 88 78 72 67 65 63 62 62 60 57 57 59 61 63 64 63 60 58 55 56 64 72 77 85 87 80 80 90 101 103 105 110 106 97 95 95 98 101 101 101 99 92 88 88 89 91 93
104 107 108 106 106 106 104 103 104 104 103 102 101 94 86 86 89 90 90 90 90 90 92 95 98 101 103 104 105 104 104 105 108 111 112 112 108 104 100 94 82 71 67 67 66 70 72 70 67 67 68 70 72 73 74 72 72 70 67 67 71 76 80 82 81 81 85 93 104 114 113 96 87 92 96 99 102 103 104 98 88 80 77 84 91 94
102 107 108 108 107 104 100 99 100 104 106 102 97 91 85 81 81 85 90 96 102 106 105 104 106 107 106 105 105 105 107 109 110 110 110 107 101 96 97 97 90 79 74 71 69 72 75 74 75 78 79 80 80 78 77 76 77 79 80 78 76 78 80 80 81 81 83 88 95 106 108 95 93 99 99 100 102 103 104 102 95 83 73 77 83 82
87 93 97 103 107 105 106 105 101 100 102 103 100 98 97 92 88 92 98 102 107 110 108 107 108 107 105 104 103 102 102 101 98 98 99 96 91 89 92 95 94 88 83 79 76 76 78 79 82 85 86 86 84 82 79 77 77 77 79 80 79 80 81 80 79 79 82 84 87 98 103 97 96 99 96 98 101 100 101 102 101 91 77 71 70 70
76 78 82 92 102 106 109 108 104 100 99 102 103 104 107 103 97 96 98 99 103 105 103 104 104 100 97 95 94 94 95 95 94 94 97 97 93 91 91 95 98 94 88 85 83 80 80 81 83 84 86 86 84 83 81 79 80 78 77 77 76 78 82 83 84 87 90 93 95 100 102 99 99 98 97 99 100 99 100 102 104 95 83 80 79 80
54 59 65 78 90 100 105 106 104 101 98 98 99 101 103 102 98 97 97 100 104 104 101 102 102 98 93 92 92 93 94 95 94 93 95 100 102 98 93 97 102 97 89 87 86 84 82 80 80 81 84 86 85 85 83 81 81 80 80 81 80 81 84 86 89 93 99 101 97 96 102 107 99 87 88 97 101 97 95 103 110 97 86 92 91 85
40 41 46 55 65 76 87 93 94 93 92 89 87 91 94 96 97 98 100 103 105 106 108 109 108 105 99 93 89 88 91 94 95 97 99 102 108 106 98 95 98 97 93 91 90 88 85 82 81 82 85 87 88 87 84 84 87 89 90 90 88 87 85 84 82 83 88 88 84 88 101 107 92 72 69 82 97 102 99 104 108 97 91 93 77 60
55 54 52 55 57 59 65 74 80 85 87 83 78 77 78 82 88 95 102 104 102 104 106 102 99 101 101 96 89 84 84 88 91 94 96 96 101 104 101 98 98 97 98 97 95 94 94 93 91 89 89 90 92 92 89 89 91 93 95 96 95 92 86 80 74 70 69 67 67 76 84 82 73 63 57 61 74 85 92 99 103 101 98 84 55 40
80 82 76 68 62 56 56 63 74 85 90 87 78 68 62 63 67 76 88 97 102 106 103 91 83 85 86 85 86 86 87 88 86 84 85 87 91 96 99 101 102 101 102 101 99 100 104 106 102 97 94 91 89 88 87 88 91 93 95 97 98 95 89 82 75 69 65 62 62 67 68 64 61 57 51 49 50 52 58 69 77 77 71 56 40 37
98 95 88 81 76 71 67 67 72 81 86 85 82 78 75 75 73 70 72 78 89 101 105 101 96 91 84 78 76 79 84 88 89 88 86 86 87 91 95 98 100 103 104 104 104 105 107 107 104 103 101 96 90 84 79 77 80 86 92 95 96 94 87 80 76 74 72 70 69 69 67 64 60 53 48 45 43 41 41 44 47 46 43 39 38 39
96 89 82 83 87 85 81 75 70 71 76 81 85 87 89 90 88 82 75 73 76 82 90 98 102 102 100 96 92 88 83 81 84 89 92 93 93 94 96 100 105 107 107 106 107 108 106 103 102 102 103 103 102 98 90 82 75 72 75 78 79 79 76 75 75 78 81 79 74 71 69 65 59 53 48 43 39 38 38 37 37 38 38 39 39 40
71 71 68 73 80 82 84 82 78 79 83 85 82 82 85 88 87 84 81 80 81 80 83 90 96 99 101 104 107 106 100 92 86 83 84 86 90 94 98 102 106 110 109 107 106 107 106 101 100 101 103 107 112 112 109 105 94 81 72 68 66 65 67 70 72 75 79 81 78 73 68 64 58 51 45 42 39 37 36 35 36 37 38 40 42 43
60 62 63 66 71 74 75 80 86 90 89 84 79 81 87 88 87 86 86 87 90 91 93 96 98 98 99 100 101 103 103 102 98 91 84 80 78 81 87 91 95 101 108 109 108 107 105 101 98 99 100 100 100 101 103 105 102 95 88 81 75 72 71 72 73 73 74 78 80 77 68 61 55 49 43 40 39 38 37 37 37 38 39 41 43 46
69 71 69 65 64 65 64 66 69 69 68 74 82 91 99 101 99 99 98 95 94 95 95 94 92 90 89 89 88 88 87 88 88 89 87 83 77 74 77 79 80 82 89 99 107 109 107 106 103 104 106 101 90 84 87 91 94 96 98 95 90 86 83 82 84 86 84 81 77 72 64 57 50 45 41 38 37 38 38 39 40 41 42 43 45 48
73 76 77 75 74 72 67 63 59 53 54 62 70 79 90 99 104 109 110 106 104 102 99 96 93 89 84 80 78 78 79 79 81 84 86 86 85 83 85 88 86 81 76 80 89 96 100 102 99 100 107 104 90 82 84 84 84 88 93 95 93 90 88 88 91 92 88 81 71 62 55 50 45 40 37 35 34 34 35 38 44 49 53 54 55 55
71 71 73 78 82 82 80 80 77 70 66 65 64 64 67 72 79 87 92 92 89 86 84 84 87 86 84 79 75 72 72 76 82 88 91 91 91 91 94 98 98 95 88 81 78 79 85 89 87 87 93 91 83 82 87 85 80 79 83 87 89 88 86 86 86 81 75 67 60 52 46 42 38 35 33 32 32 34 37 43 49 54 57 58 59 61
73 73 74 79 82 83 86 90 91 87 82 80 82 81 78 73 70 68 68 66 63 61 60 60 62 64 66 67 65 60 56 57 60 64 66 68 69 72 76 80 80 79 77 72 65 59 60 65 67 68 72 74 71 71 76 77 72 69 69 70 72 70 67 64 60 56 52 48 43 39 36 35 34 33 34 37 41 45 48 50 52 53 53 53 55 59
77 78 80 82 82 82 85 87 88 88 88 88 92 94 93 91 85 77 71 64 58 59 61 61 62 64 65 67 67 63 60 57 54 53 54 55 56 56 57 58 58 55 54 53 51 47 45 45 46 46 47 50 49 47 50 51 49 47 47 46 46 45 43 42 41 39 39 38 37 36 36 37 39 41 44 48 52 54 54 53 52 51 51 52 53 54
87 86 86 84 81 83 88 90 88 87 84 83 88 93 97 98 97 93 86 76 70 72 72 69 70 74 77 80 82 81 79 74 69 65 64 64 65 67 67 67 66 63 61 59 57 55 53 50 49 48 47 47 46 43 43 44 43 43 43 42 43 43 42 42 44 44 44 44 45 45 46 47 48 50 52 54 55 55 55 55 56 55 55 55 55 55
96 95 94 90 85 82 86 92 93 91 86 82 86 92 97 101 103 105 102 94 92 95 93 86 84 84 85 88 93 96 98 95 90 84 77 71 68 67 68 70 70 70 68 65 62 59 56 53 52 51 52 53 53 50 48 48 47 46 46 46 48 50 50 50 51 51 52 52 52 52 52 54 55 56 57 58 59 61 62 63 64 64 62 61 59 57
98 99 100 99 95 89 88 90 90 89 88 87 90 95 100 104 104 104 103 100 100 103 100 96 93 91 91 94 98 100 101 100 99 96 91 84 76 69 64 62 63 64 63 64 66 67 67 66 63 61 60 59 59 58 56 54 53 51 51 51 51 53 55 57 58 57 55 54 55 57 57 59 61 63 65 66 68 69 71 71 71 69 67 64 62 61
89 92 94 96 97 96 95 95 91 86 82 81 85 91 99 106 106 104 103 104 105 103 98 93 89 86 86 89 91 94 94 93 93 94 92 89 84 76 70 64 61 61 62 65 69 74 77 78 76 72 69 66 63 62 61 59 59 58 57 56 56 57 58 60 64 66 66 64 64 66 68 69 71 73 75 75 74 71 70 69 67 66 64 64 65 66
76 79 79 80 82 84 84 84 83 79 73 72 78 86 94 102 104 102 102 103 102 101 98 95 90 86 83 82 83 86 88 86 85 85 85 86 85 82 79 75 71 68 66 65 66 67 67 69 68 68 67 66 64 63 61 60 60 61 61 61 61 61 60 62 67 73 76 74 71 70 70 70 70 70 70 69 66 63 61 59 59 60 61 63 66 68
72 72 72 72 73 73 71 68 65 62 61 63 68 71 75 80 83 83 85 85 85 87 89 88 86 82 81 80 80 81 83 85 86 86 85 85 84 83 83 82 79 75 71 67 66 64 62 61 61 61 62 63 63 61 59 58 58 59 61 62 62 61 60 60 62 67 69 67 63 61 60 59 58 57 57 55 54 53 55 57 59 63 66 67 68 67
64 64 66 67 66 65 63 60 56 53 53 54 56 56 57 58 58 58 59 58 59 62 64 66 68 69 70 72 73 73 73 74 75 77 77 76 75 73 73 73 73 72 70 68 67 66 64 62 62 61 62 62 62 60 59 57 57 58 60 61 61 61 60 58 57 59 60 58 55 53 52 52 52 52 52 52 53 54 57 60 62 65 66 66 65 63
58 59 60 60 60 60 58 55 53 51 49 47 47 48 48 48 47 47 47 48 49 49 50 51 53 54 54 54 55 56 56 56 56 58 59 60 61 62 63 63 63 62 61 61 61 60 60 59 59 59 59 59 59 58 56 54 53 54 55 56 56 57 57 56 54 54 56 57 54 51 48 48 49 50 51 51 52 53 53 54 54 54 55 56 56 54
55 56 56 56 55 55 54 52 50 48 47 45 43 43 43 45 46 46 46 46 45 44 44 44 44 44 44 43 43 43 44 45 47 48 49 50 51 52 53 53 53 53 52 52 52 52 52 52 51 50 50 51 51 51 51 50 50 51 52 52 53 52 52 51 51 50 52 54 54 51 47 44 44 45 46 46 45 44 43 43 44 45 46 47 47 46
52 51 51 50 50 50 50 49 47 45 43 41 40 39 40 41 42 43 43 42 40 39 38 38 37 37 36 36 36 37 38 37 37 38 39 40 41 41 42 42 42 42 43 43 43 43 43 43 43 42 42 42 43 43 42 43 44 45 46 46 46 44 43 41 41 40 40 41 44 44 43 41 39 37 37 38 37 37 37 38 39 40 42 42 42 43
47 47 46 45 45 45 45 44 43 42 40 39 38 38 38 37 36 35 35 35 36 37 36 35 34 33 32 32 32 31 32 32 32 31 31 32 32 32 32 33 34 34 35 35 35 35 35 34 34 33 33 33 34 34 33 33 34 34 34 35 35 34 33 32 31 31 31 31 32 34 36 37 36 35 33 33 32 33 34 35 37 38 39 39 39 40
38 38 38 36 36 36 36 36 36 34 33 32 32 31 31 31 30 29 28 27 26 27 28 28 27 27 27 27 26 26 26 26 27 27 27 27 27 28 28 28 28 29 29 29 29 29 29 29 28 27 26 25 25 25 25 26 26 26 26 27 28 28 29 28 28 28 28 28 29 30 32 34 36 36 34 32 30 31 32 35 37 38 37 36 36 37
31 31 30 30 30 30 31 30 29 28 27 26 25 24 25 26 26 24 23 22 20 20 20 21 22 23 22 22 21 21 22 23 23 23 23 22 23 23 24 24 24 24 23 23 23 23 23 23 22 22 22 22 21 22 23 24 24 23 23 23 25 26 26 27 27 28 28 28 28 28 28 30 32 33 32 30 29 29 30 33 34 35 35 34 34 34
Wind_Speed
45 45 45 45 45 45 44 44 43 44 46 48 49 48 48 48 46 47 47 47 46 45 46 47 48 47 46 46 43 39 36 35 34 35 36 34 34 34 34 33 30 27 28 29 30 31 33 35 37 38 39 42 44 46 47 48 50 52 53 53 54 58 60 60 62 62 61 60 59 58 57 58 59 60 60 59 59 59 59 57 51 47 45 42 41 40
43 43 42 42 42 42 43 43 43 43 45 48 49 49 49 48 47 47 47 46 44 42 42 43 45 46 45 44 43 39 36 35 34 35 37 36 35 35 33 31 29 28 28 28 29 32 34 37 39 40 41 42 44 45 46 47 48 49 50 51 54 58 61 61 62 64 65 66 65 64 63 62 62 62 62 62 61 58 55 49 43 41 40 39 39 38
41 41 40 41 42 43 43 43 43 44 46 48 50 50 49 48 47 46 46 45 43 41 40 41 43 45 44 44 43 40 38 36 35 36 37 37 36 35 34 32 30 29 29 28 29 30 33 36 39 41 43 45 46 46 46 47 47 48 49 50 53 57 61 62 63 65 67 69 69 69 68 66 65 64 62 60 57 52 47 41 38 38 38 38 37 36
41 40 40 42 44 44 44 44 45 46 47 48 49 50 50 48 46 45 45 44 42 40 40 41 43 46 47 46 43 40 38 36 36 36 37 37 36 35 34 34 34 32 30 29 30 29 30 34 37 41 43 46 49 50 49 48 49 50 51 52 53 57 60 62 63 65 66 68 69 69 69 68 66 63 60 54 49 45 42 39 38 39 39 38 36 35
40 40 41 43 45 45 44 45 46 47 47 47 48 49 49 47 45 45 43 43 42 41 41 42 44 48 49 47 43 39 37 36 35 36 38 36 34 34 35 36 36 34 32 32 32 31 31 33 36 40 42 44 48 50 51 50 51 52 52 52 53 55 58 60 61 62 63 64 65 66 66 64 61 57 52 47 42 40 38 39 41 40 39 38 37 35
41 41 42 44 46 45 45 46 46 46 46 46 47 49 49 47 45 44 43 42 42 41 42 43 45 48 48 46 44 41 38 36 35 36 37 35 33 34 35 35 35 35 34 34 34 34 35 35 37 39 41 43 46 49 51 52 53 53 53 53 53 54 56 57 58 59 60 61 63 63 60 56 52 47 43 40 38 36 36 39 41 41 39 39 38 36
42 42 42 44 46 46 46 46 45 45 45 46 47 49 49 47 45 44 42 42 42 43 43 44 45 46 47 45 45 43 40 36 34 35 35 33 33 33 33 33 33 35 36 35 36 37 38 38 38 39 40 41 45 48 51 52 53 54 54 54 54 55 56 56 57 58 58 59 60 58 54 49 44 40 38 36 35 36 38 40 41 40 40 40 39 37
42 42 42 44 46 46 46 46 45 45 45 46 48 49 48 46 45 44 43 43 43 43 44 43 43 44 45 46 46 45 41 37 34 33 32 31 31 32 31 30 31 33 34 35 37 38 39 39 38 39 39 40 42 46 49 52 53 54 55 55 56 57 57 57 57 58 57 56 55 52 47 42 37 34 34 35 37 39 42 44 43 41 40 40 40 39
43 42 42 43 44 45 46 46 44 43 44 46 46 47 46 45 45 45 45 45 44 43 43 42 42 42 43 46 46 44 42 38 33 30 30 30 30 31 30 30 31 32 33 34 36 37 37 37 38 39 39 40 42 44 47 49 51 53 54 55 56 56 56 56 55 54 53 51 49 46 42 39 37 35 35 36 38 41 44 45 44 41 40 40 40 40
42 42 40 41 42 44 45 44 42 42 44 44 44 45 46 46 47 47 46 45 43 42 42 41 42 42 43 44 45 43 41 38 33 29 29 29 30 30 30 30 31 31 32 34 34 35 35 35 36 36 36 38 41 44 46 48 49 50 50 51 52 53 52 52 51 51 50 49 47 45 45 45 43 39 37 37 39 42 45 45 43 41 39 38 39 39
42 40 39 40 41 44 43 42 41 42 43 44 44 45 46 47 49 48 46 45 43 42 42 42 43 43 42 43 44 43 41 38 33 29 29 29 30 29 29 30 30 31 33 34 34 35 34 34 33 33 33 35 38 41 43 45 46 47 47 47 48 49 49 49 49 48 48 47 48 48 49 50 47 41 38 39 40 44 46 44 42 39 38 37 38 39
41 39 38 39 40 42 42 42 42 42 43 44 45 45 45 47 49 48 46 45 43 43 43 43 43 42 40 41 43 43 42 38 33 31 30 30 30 30 30 31 32 32 33 34 35 36 35 34 35 35 35 36 36 37 38 39 41 41 42 42 42 43 44 45 46 46 46 47 47 47 47 49 47 42 39 40 42 45 47 44 40 37 35 35 37 39
41 39 39 40 41 43 43 42 42 42 43 44 44 44 45 46 47 47 46 45 44 44 44 43 42 41 39 40 42 43 42 39 35 33 32 31 32 32 33 33 34 34 34 35 36 36 35 36 38 38 37 38 37 37 37 37 38 38 38 37 36 37 38 39 40 42 44 45 46 46 47 50 50 45 42 42 43 45 47 44 39 36 34 34 36 38
41 40 39 41 43 43 43 42 41 42 44 45 44 44 45 46 46 47 46 46 45 44 44 42 41 41 40 40 42 42 42 41 38 35 35 34 34 35 35 35 36 38 38 37 36 35 37 39 40 40 40 40 40 39 38 38 38 37 36 35 34 35 38 41 41 39 40 43 45 47 49 51 52 50 45 43 44 45 45 44 40 38 37 37 36 37
40 40 40 41 43 43 43 43 43 44 46 47 45 45 46 46 46 46 45 45 45 44 44 43 41 41 41 41 42 42 42 43 41 38 38 37 38 38 38 39 40 41 41 39 37 37 39 41 42 42 42 42 41 41 40 40 39 37 33 29 30 34 40 47 48 43 39 41 43 47 49 50 52 53 49 47 46 46 46 44 42 41 41 40 39 39
40 41 41 41 43 44 45 45 44 46 47 47 46 47 48 46 46 46 45 44 44 43 44 44 43 43 44 43 43 44 43 44 44 42 40 40 42 43 43 43 44 44 43 41 41 41 41 42 43 44 44 43 43 43 42 42 40 37 33 28 29 36 44 49 49 45 42 41 42 46 48 49 52 54 53 51 49 48 47 46 44 44 43 43 42 43
40 42 43 43 44 46 46 45 44 46 47 47 48 49 47 44 44 45 43 43 44 45 46 47 45 46 46 45 45 46 45 46 46 44 42 42 45 47 48 48 48 47 45 44 44 43 43 44 45 46 46 45 45 44 43 43 42 40 38 34 37 43 46 47 45 44 44 44 44 45 46 48 51 53 55 55 52 50 49 48 45 44 45 45 45 45
41 45 46 45 45 45 45 45 46 48 49 49 50 48 45 44 43 44 44 45 46 47 48 49 48 47 47 48 48 47 46 47 48 47 45 45 47 50 51 51 51 50 49 47 46 45 45 46 47 48 48 48 47 46 44 44 44 43 42 41 40 43 44 45 42 40 43 47 47 46 46 48 51 55 59 61 59 57 56 53 48 46 48 49 48 48
43 47 47 45 45 45 45 47 50 51 50 50 49 46 45 45 44 45 47 47 47 49 50 50 50 48 48 50 50 49 49 49 49 49 48 49 50 52 54 54 52 52 52 51 50 48 48 48 49 49 50 50 50 49 47 45 45 45 45 45 44 44 45 45 42 37 39 46 51 50 49 49 50 55 60 62 62 63 62 59 54 52 52 52 51 51
45 49 48 45 45 46 47 50 53 52 49 50 50 48 46 46 45 47 50 49 49 51 52 53 52 50 51 52 52 52 51 51 51 52 52 52 54 55 56 55 54 54 54 53 52 51 50 49 49 49 50 50 50 50 49 48 47 46 46 47 47 47 48 48 47 42 41 47 52 51 50 50 50 53 58 61 63 65 66 63 58 56 55 55 54 53
46 48 49 47 47 49 50 52 54 52 49 50 52 51 48 46 48 50 51 51 51 52 53 54 54 53 54 55 55 55 54 53 54 54 54 55 56 57 58 57 56 55 54 54 53 51 49 48 48 47 47 48 49 49 49 49 48 47 46 47 48 48 50 51 51 50 50 53 55 55 55 56 55 55 59 63 66 68 70 68 66 62 59 57 57 56
46 48 51 51 51 52 52 53 54 53 53 53 55 55 51 49 50 51 51 52 52 54 55 55 56 57 57 58 57 57 56 55 55 56 56 57 57 58 58 59 59 57 55 53 52 50 49 48 47 46 46 46 46 47 47 47 47 47 47 48 48 48 50 51 51 52 53 55 56 57 56 54 52 53 56 61 65 69 71 72 70 67 64 61 60 60
47 49 51 53 53 54 54 55 56 55 55 55 56 56 54 53 52 52 52 53 55 57 58 57 58 60 60 60 59 58 57 57 57 57 58 59 59 59 59 60 61 58 55 53 51 49 49 48 47 46 45 45 45 45 46 46 46 46 47 47 47 48 48 49 51 52 54 55 56 56 53 47 46 49 53 56 59 61 64 66 66 65 64 63 63 63
51 52 52 53 54 55 56 58 58 57 56 57 57 57 56 56 54 54 54 55 57 59 59 60 61 62 61 61 60 59 59 59 59 60 60 61 60 59 59 60 60 58 54 52 50 49 48 47 47 46 46 45 46 45 45 45 45 46 46 47 47 47 47 48 49 50 52 54 54 54 51 46 44 44 42 41 42 45 49 54 60 62 62 63 64 64
54 54 53 54 56 57 59 62 61 60 58 59 59 58 59 59 57 57 57 58 60 62 62 62 63 63 63 62 61 61 61 61 61 60 61 61 60 59 58 58 58 57 54 52 51 50 49 48 48 47 47 47 47 46 45 45 45 45 46 46 46 46 46 47 48 48 49 50 50 51 50 50 49 47 41 34 31 36 43 48 55 59 58 58 61 63
54 54 53 55 57 58 61 63 63 62 61 61 61 61 62 62 60 60 60 61 62 64 63 64 65 65 64 63 62 62 61 61 60 60 59 59 59 58 57 56 56 57 55 53 52 51 50 50 49 48 48 48 48 48 47 46 46 46 46 46 46 47 47 48 49 48 48 48 47 44 42 46 52 54 53 46 37 33 35 39 48 55 54 52 55 59
51 50 51 54 57 58 61 62 63 63 63 63 62 62 62 62 61 61 61 62 63 63 63 64 64 64 65 64 62 61 60 59 59 59 58 58 58 58 58 57 57 57 56 55 54 53 52 51 51 50 50 50 49 49 49 48 47 47 48 48 48 49 50 51 51 50 49 48 45 40 40 46 52 53 55 57 51 44 40 42 51 58 59 58 59 59
50 49 50 52 54 56 58 60 61 61 62 63 63 62 62 62 61 60 60 61 62 62 63 65 64 63 64 63 62 61 60 60 59 59 59 59 58 59 59 58 58 58 57 56 56 55 54 53 53 52 52 52 52 51 50 50 49 49 50 50 51 51 52 53 53 53 52 52 49 47 50 54 55 54 55 58 61 61 59 59 63 67 67 67 66 62
50 51 51 51 52 53 54 56 57 58 59 61 62 62 62 61 61 60 60 60 60 61 63 65 65 64 64 63 62 61 61 61 62 61 61 61 60 60 60 60 60 59 59 58 58 56 56 56 56 55 55 55 55 54 53 53 52 52 53 53 53 54 54 55 56 56 56 56 55 55 57 57 57 57 57 58 61 65 68 68 69 70 70 69 66 63
50 51 51 51 51 52 52 53 54 55 56 57 58 59 59 59 60 60 60 60 60 60 62 63 64 64 65 65 64 63 62 62 63 63 63 63 62 62 61 62 62 61 61 61 60 59 59 59 58 58 57 58 58 58 57 57 56 55 55 55 55 56 57 57 57 58 58 59 58 58 59 60 59 58 59 59 61 64 66 68 69 69 68 67 64 63
50 51 50 49 51 51 52 52 51 50 51 53 54 55 56 57 58 59 59 60 60 61 62 63 63 64 65 65 65 65 65 65 65 65 65 65 65 64 64 63 63 63 63 63 63 63 62 62 61 59 59 58 59 60 61 61 60 59 57 58 58 58 58 57 58 59 60 61 61 61 61 61 61 61 61 61 62 63 65 66 66 66 65 64 64 63
50 51 50 50 50 51 51 51 50 49 50 51 52 53 54 56 57 58 57 58 59 60 61 62 63 64 65 65 66 67 67 67 67 66 66 65 65 65 65 64 64 64 64 65 65 65 65 64 63 61 60 60 61 62 63 63 63 62 61 61 60 59 58 58 59 60 61 62 62 62 62 62 62 62 62 63 63 64 64 64 64 63 63 63 62 62
50 51 51 51 50 51 51 51 50 51 51 52 51 52 54 55 55 55 56 56 57 59 60 61 62 63 63 64 64 65 65 66 67 67 66 64 63 62 62 62 61 61 62 64 65 66 66 66 64 63 63 63 63 63 63 63 63 63 63 63 62 61 59 59 59 60 61 61 62 62 62 62 62 62 62 63 63 63 63 63 62 62 61 61 61 61
51 52 53 52 51 52 52 52 52 51 50 51 51 52 54 55 55 55 56 56 56 57 58 59 59 60 60 61 61 62 61 62 63 64 65 64 62 60 59 59 59 59 59 61 63 65 66 66 64 65 67 68 66 64 62 62 62 62 63 63 63 62 61 59 59 60 60 61 61 62 62 62 62 62 62 63 63 63 62 61 61 61 61 61 61 61
52 53 54 53 53 54 53 53 53 52 50 51 52 52 54 55 55 56 57 58 58 58 58 58 58 58 58 58 58 58 58 58 59 61 62 62 61 59 59 59 59 59 58 58 60 62 63 64 64 64 67 69 68 64 62 61 60 60 61 62 61 61 60 59 59 60 61 62 62 62 61 61 60 61 62 62 63 62 62 61 61 61 61 61 61 62
55 56 55 54 55 55 54 54 55 54 53 53 53 53 55 56 56 58 59 59 59 58 58 58 58 58 58 59 59 57 56 56 57 59 60 60 60 59 59 60 61 60 60 60 60 60 60 61 62 62 64 66 64 61 60 61 59 57 58 59 59 59 59 59 60 61 62 62 62 62 61 60 60 61 61 62 62 62 62 62 62 62 62 62 62 62
57 57 57 57 57 57 56 56 57 57 56 55 55 57 58 59 59 60 61 60 59 58 58 57 56 57 58 60 61 60 58 58 58 58 59 59 60 60 60 61 62 62 62 62 62 61 59 60 61 61 61 61 61 59 59 60 59 57 56 57 58 60 60 60 60 60 61 61 61 61 61 60 61 61 62 62 63 63 64 64 64 64 64 64 64 64
59 59 59 60 60 60 59 60 60 60 59 58 58 60 61 63 63 63 63 63 61 59 58 58 58 58 59 61 62 62 62 62 61 60 59 60 61 62 63 64 64 64 64 64 64 64 62 61 62 62 61 61 61 59 58 59 58 57 57 57 58 59 59 59 59 59 59 60 60 61 61 62 62 63 63 64 65 65 65 65 65 66 66 66 66 66
62 62 62 63 62 61 61 62 63 63 62 61 61 62 63 64 66 66 66 66 63 62 61 61 61 61 62 63 64 65 66 67 66 64 63 64 64 65 66 67 68 68 68 68 67 67 66 65 65 65 64 64 64 62 60 59 59 58 58 58 58 59 58 59 60 60 60 61 62 63 64 64 65 66 66 67 67 67 67 68 68 68 69 69 69 68
64 65 65 65 64 63 63 63 64 65 64 63 62 64 65 66 67 69 69 68 66 65 65 65 64 64 65 66 68 69 70 71 70 69 69 70 70 69 69 70 71 71 71 72 71 71 70 69 69 68 68 68 68 66 64 63 62 61 61 60 60 60 61 62 63 64 64 65 65 66 67 67 68 69 69 69 70 70 70 70 71 71 71 71 71 70
66 66 67 66 66 66 65 65 66 66 65 64 64 64 66 68 70 72 72 71 69 69 69 69 68 68 68 70 71 72 73 74 74 74 74 74 74 74 73 73 73 73 74 74 74 74 74 74 73 72 72 71 71 71 70 69 67 65 65 65 63 63 64 65 66 68 69 69 69 70 70 70 71 71 72 72 73 73 73 73 74 74 74 73 73 72
67 67 68 68 68 68 67 67 67 67 66 65 65 65 66 69 72 73 73 72 72 72 73 73 72 72 72 73 73 75 76 77 77 77 77 77 78 78 77 76 75 75 75 76 76 76 77 77 78 77 77 76 75 75 74 73 72 71 70 69 68 68 68 68 69 70 72 73 73 74 74 74 74 75 76 76 76 76 75 75 75 75 75 74 74 73
68 68 69 68 68 69 69 69 69 69 67 66 65 65 67 71 73 74 74 74 74 75 75 76 76 75 75 76 76 77 78 79 79 79 79 80 80 80 80 80 79 78 78 79 79 80 79 80 80 80 80 80 79 79 78 77 76 75 74 73 73 72 72 72 71 72 74 76 77 77 77 77 77 77 78 78 78 77 76 76 75 75 75 75 74 75
69 69 70 70 70 71 71 71 71 70 69 68 67 68 70 72 74 75 75 75 76 76 77 78 78 77 77 78 78 79 79 80 81 82 82 82 82 83 83 83 83 83 82 82 82 83 82 82 82 82 82 82 82 82 82 81 79 78 77 77 76 76 75 75 74 75 77 78 79 79 79 79 79 78 79 78 77 76 75 75 75 75 75 75 75 76
70 70 71 71 72 73 73 73 73 72 71 70 70 71 72 74 75 75 76 76 77 77 77 78 79 79 79 80 81 81 82 82 83 83 84 85 85 85 85 85 85 85 85 85 85 86 85 85 84 84 84 84 85 85 84 83 82 81 80 79 79 79 78 78 77 77 77 79 79 79 79 79 79 79 78 78 76 75 75 75 75 74 74 75 76 77
70 71 72 73 74 75 75 75 74 74 73 72 72 72 73 73 74 74 75 76 76 77 78 78 79 80 81 82 82 83 83 83 84 84 85 85 86 87 87 87 87 87 87 87 87 88 88 87 87 86 86 85 86 86 86 85 84 83 83 82 82 81 80 80 79 78 78 80 80 80 80 79 78 78 78 77 76 76 75 75 74 74 74 74 76 76
71 72 73 74 74 75 76 76 75 75 75 74 73 72 72 72 73 74 75 76 76 77 77 78 79 80 80 81 81 81 81 82 83 84 85 85 86 87 88 88 88 88 88 88 88 88 89 89 89 88 86 86 86 87 87 86 86 86 85 85 84 84 82 81 81 80 80 80 81 82 81 79 78 77 77 76 75 74 73 73 72 72 72 73 74 73
70 71 72 73 73 73 74 74 75 75 74 74 73 72 71 72 73 74 75 76 76 76 76 76 77 77 77 78 78 78 79 80 81 81 82 83 84 85 86 86 86 87 87 87 87 87 88 88 88 88 87 86 86 86 86 86 86 86 86 86 86 85 83 82 81 80 79 78 79 80 80 79 78 76 75 74 73 71 70 70 70 70 70 71 70 70
66 68 69 70 70 70 71 71 72 72 72 71 71 71 70 70 71 71 72 72 72 73 74 74 74 74 74 74 74 75 75 76 77 77 77 78 79 79 80 80 81 81 82 83 83 84 84 85 85 85 84 84 83 84 83 83 83 83 83 83 83 82 81 80 78 77 76 75 74 74 75 75 75 74 72 70 69 67 67 67 67 67 68 68 67 67
61 62 64 64 65 65 65 66 66 67 67 67 67 66 66 67 68 68 68 68 67 68 68 69 69 70 70 70 70 70 70 71 72 72 72 72 73 73 74 74 75 75 76 77 78 78 79 80 81 81 80 79 78 78 78 78 78 78 77 76 76 77 77 76 75 74 73 72 71 70 69 70 70 71 70 68 66 64 63 64 65 65 65 64 63 63
54 55 56 57 58 58 59 60 61 61 61 61 61 60 60 61 62 63 63 63 62 62 61 61 62 63 64 64 63 63 64 65 66 66 66 66 67 68 68 69 70 71 71 72 72 73 74 74 75 75 74 74 73 72 72 73 73 72 71 70 70 70 70 70 70 69 69 69 68 67 66 65 66 67 67 66 64 62 62 62 62 63 63 62 62 61
Wind_Direction
251 251 252 252 252 253 253 253 253 252 253 255 256 256 257 257 257 257 259 260 261 263 264 265 265 265 265 266 265 263 261 260 261 262 263 261 261 263 267 272 272 267 261 256 251 246 245 244 243 240 238 238 239 241 241 241 241 242 244 245 244 243 245 249 251 255 258 260 263 266 270 274 275 277 278 281 283 285 287 288 288 288 287 287 287 286
250 250 250 251 251 251 251 251 251 252 253 255 256 256 255 256 256 256 258 259 260 260 261 263 266 266 265 264 263 261 259 257 256 257 259 260 260 262 263 266 267 265 261 257 251 245 240 240 240 238 236 236 238 239 241 243 243 245 247 247 245 244 246 250 254 257 259 260 260 262 265 269 273 276 280 283 284 286 286 286 287 289 289 290 291 290
249 250 250 251 250 250 250 251 251 252 253 255 256 257 257 257 256 256 257 257 257 257 256 258 263 266 264 262 261 261 259 256 254 255 257 259 260 262 263 262 260 259 260 258 254 249 243 240 239 237 235 234 236 238 239 242 244 246 247 248 247 246 248 252 257 261 262 262 262 262 264 267 270 274 279 283 285 285 285 286 291 295 294 293 294 295
249 250 250 251 251 251 252 252 252 252 252 254 256 257 257 257 256 256 256 256 256 255 253 253 257 261 262 261 261 262 261 259 258 258 258 258 259 261 262 261 259 257 256 256 253 251 248 245 243 240 236 234 235 238 240 242 245 246 247 249 249 250 251 254 259 262 265 266 266 266 267 269 271 274 278 281 282 283 283 286 294 299 296 293 294 296
250 251 251 253 253 252 253 253 252 252 253 254 255 256 256 256 256 256 256 257 256 254 253 252 254 258 261 262 263 262 261 261 260 260 261 260 261 261 260 260 260 259 255 252 252 251 249 247 246 245 241 238 237 239 241 244 246 248 249 251 252 253 254 257 260 264 266 268 269 269 270 272 274 276 277 277 278 281 283 287 294 298 296 293 292 293
251 251 252 254 254 253 252 252 253 254 254 254 254 255 256 256 256 256 255 255 254 253 253 255 256 259 261 264 265 262 259 258 259 260 263 264 263 261 261 262 262 261 257 252 251 251 249 247 246 247 246 244 242 242 242 244 246 248 250 252 254 255 257 259 261 264 267 269 270 271 272 274 275 274 273 273 277 282 286 291 295 295 294 293 290 290
251 251 252 252 253 253 252 252 253 253 253 253 253 254 255 255 255 255 255 254 253 253 254 256 258 262 264 265 265 264 260 257 256 258 261 263 263 262 261 262 261 260 259 256 253 251 249 247 246 247 247 246 245 244 244 245 247 249 250 252 254 256 258 260 262 264 267 270 271 272 273 274 273 273 274 276 282 288 291 295 296 293 293 292 289 286
251 250 251 251 252 253 253 252 251 252 252 252 253 254 255 256 256 255 254 253 253 254 255 257 259 263 266 266 265 265 264 260 257 257 259 259 259 259 258 256 255 255 256 256 255 254 252 251 249 248 248 248 248 247 247 247 248 250 251 252 254 256 258 261 263 264 266 269 271 272 272 271 270 272 276 280 286 290 293 293 292 290 290 290 287 284
252 250 250 252 253 253 252 252 252 252 252 252 254 256 256 256 255 254 254 254 255 256 258 259 261 262 265 267 268 268 267 264 260 258 258 257 255 255 254 252 252 253 254 254 254 255 255 254 252 250 250 250 251 251 251 250 250 250 251 253 254 256 258 260 262 264 265 267 269 270 267 264 262 265 272 278 283 288 291 290 287 285 287 286 283 281
250 250 250 251 252 251 252 253 253 252 252 252 253 255 256 256 255 255 255 256 257 258 259 260 261 261 262 265 267 268 268 266 262 258 257 256 254 253 252 252 252 254 255 255 255 256 256 255 255 253 251 250 251 251 252 253 252 252 252 254 255 256 258 259 261 263 264 265 265 264 262 261 261 263 268 275 281 286 288 285 281 281 283 282 279 277
249 250 249 249 250 252 252 252 251 251 252 252 252 253 255 257 258 258 258 258 258 258 259 258 258 259 261 262 264 264 265 265 264 261 258 258 257 254 254 255 254 255 256 257 258 258 258 258 259 257 253 250 249 250 252 253 255 255 255 255 256 257 258 259 260 261 262 263 263 263 264 266 265 262 266 274 280 284 283 280 277 279 280 278 276 274
248 248 247 246 248 250 251 250 250 250 251 252 252 254 255 257 260 261 261 261 260 258 257 257 257 257 258 260 262 264 264 264 263 262 259 259 260 260 259 259 257 256 257 259 260 261 261 262 260 258 255 253 252 252 253 255 257 258 257 257 257 259 260 260 261 261 260 260 261 263 266 267 267 265 267 274 279 281 280 277 277 278 279 278 275 272
247 245 244 244 245 248 250 250 251 251 252 253 254 255 257 258 260 261 262 261 260 258 256 255 256 256 254 256 260 263 265 265 263 262 261 259 260 262 261 262 262 261 259 259 260 262 264 263 262 260 257 256 255 254 255 256 258 260 262 262 263 265 266 265 263 261 258 256 256 260 261 264 268 268 268 272 278 279 278 276 277 279 280 279 277 272
247 245 243 244 245 246 249 250 251 252 253 254 254 255 257 258 259 260 261 260 259 258 257 255 255 256 255 255 258 262 266 267 265 264 264 263 262 263 262 263 264 263 261 260 260 262 263 264 264 263 262 260 259 257 256 256 257 260 265 271 276 278 276 272 267 261 258 254 254 256 258 261 265 266 266 270 276 278 277 277 279 281 281 280 278 275
247 246 244 245 248 249 249 250 250 251 253 255 255 255 256 256 258 258 258 259 258 257 258 257 256 257 257 256 258 261 264 267 268 267 268 268 268 266 265 264 263 262 262 262 262 262 263 264 264 264 264 263 263 261 259 258 257 257 261 270 279 280 275 271 267 262 259 257 256 257 259 261 263 265 265 268 274 278 277 279 282 283 282 280 278 278
246 248 247 246 248 251 251 250 251 252 254 256 257 255 254 255 256 257 257 257 258 257 258 258 257 257 258 258 259 261 263 267 269 270 271 273 274 272 270 267 266 264 263 262 262 261 262 263 264 264 264 263 263 263 262 262 260 258 255 250 249 252 256 260 263 262 261 262 262 260 260 263 264 266 265 267 274 278 277 279 283 283 283 281 279 279
248 249 249 248 248 250 252 253 253 255 255 255 255 255 256 256 257 258 257 257 257 257 257 258 257 257 259 260 261 262 265 267 269 272 274 275 275 274 273 272 270 268 266 264 263 262 261 262 263 263 263 263 262 262 262 262 262 261 257 248 240 241 247 255 261 263 264 265 265 262 262 265 266 267 266 265 270 274 275 278 282 283 282 281 280 279
250 251 251 250 250 251 253 255 255 254 254 254 255 256 258 258 258 259 258 257 257 257 257 258 258 259 261 262 263 265 266 267 270 272 274 273 272 273 273 273 272 272 271 270 268 267 266 265 264 264 264 263 262 261 260 259 259 259 258 253 246 244 248 253 257 262 265 266 264 262 263 265 264 265 265 263 265 270 274 275 278 281 282 280 279 279
250 252 251 251 252 253 253 254 254 253 253 255 256 256 257 258 258 259 258 257 257 258 258 259 259 260 261 262 263 264 265 267 269 271 272 271 270 270 270 271 272 274 274 275 274 273 272 270 268 267 266 265 263 262 260 258 257 256 256 255 251 247 248 249 253 259 263 263 261 260 261 263 262 263 266 267 268 271 273 273 274 278 280 279 277 277
250 253 253 252 252 253 253 254 254 253 254 257 258 257 256 258 258 258 257 257 257 258 259 259 259 259 259 260 261 263 264 267 269 270 271 270 270 270 270 272 273 274 275 277 277 277 275 273 270 268 266 265 264 264 262 260 258 256 255 255 254 251 249 249 252 256 255 255 257 258 260 262 261 263 266 268 271 272 273 273 273 275 276 275 274 275
251 254 256 254 253 252 252 253 255 256 255 256 258 257 255 255 256 256 257 258 258 258 259 260 260 259 258 259 260 262 265 267 269 270 270 270 270 270 271 273 273 274 275 277 277 277 275 272 270 268 266 265 264 263 263 261 260 257 255 255 255 254 253 253 255 255 252 252 257 259 259 259 259 261 265 267 270 272 273 274 274 275 274 271 270 271
250 252 254 254 252 252 252 253 256 257 256 256 258 258 257 256 256 257 259 260 260 260 259 259 260 260 259 260 261 263 266 267 267 268 268 268 269 270 272 274 274 275 276 276 276 274 272 270 269 268 266 265 264 263 262 261 261 260 258 256 255 255 255 255 255 255 254 254 256 259 259 259 260 263 267 271 272 274 275 276 276 275 273 271 269 268
249 249 251 254 254 255 255 255 255 256 257 258 259 261 261 260 259 260 260 260 260 260 260 260 260 261 261 262 263 264 265 265 265 266 266 267 268 270 272 273 274 276 276 275 273 271 270 269 269 268 267 265 264 262 261 261 260 260 259 258 256 255 255 255 255 254 254 253 253 255 256 257 261 266 270 274 277 278 278 277 276 274 271 270 268 267
250 250 251 254 256 257 258 257 257 257 258 260 261 262 262 261 260 260 259 259 259 260 260 260 261 261 262 263 264 264 264 265 265 266 267 268 269 271 272 272 273 274 274 272 271 269 268 268 268 267 266 265 264 263 262 261 260 259 258 257 257 256 255 255 254 254 254 253 253 253 251 250 254 261 266 271 275 277 277 277 277 275 272 270 268 267
251 252 253 256 258 259 260 260 259 259 259 259 260 261 262 261 261 260 260 260 260 261 261 261 261 262 263 263 264 265 265 266 267 267 268 269 270 270 270 271 271 272 271 270 269 268 267 267 266 266 266 265 264 263 262 261 260 259 258 257 256 256 255 255 255 256 255 253 252 252 251 248 247 249 253 258 264 270 275 277 277 277 274 270 268 267
255 254 254 256 257 259 260 261 261 261 260 259 259 260 261 262 262 261 261 261 262 262 263 263 263 263 264 264 264 265 266 266 267 268 268 268 269 269 268 268 268 269 269 269 268 267 266 266 266 266 266 266 265 264 263 262 261 261 260 259 258 257 256 256 256 256 253 252 252 253 251 250 248 247 246 248 253 260 265 266 268 271 271 269 269 268
262 260 257 256 257 258 259 261 262 262 261 260 260 260 261 261 262 262 262 262 262 262 263 263 263 264 264 264 264 264 265 265 266 266 266 266 266 267 267 267 267 267 268 268 268 268 267 266 266 266 266 266 265 265 263 263 262 261 260 260 260 259 258 257 256 254 252 252 253 249 245 246 249 248 245 245 246 246 245 247 254 262 267 270 271 270
268 265 262 260 258 257 258 260 262 262 263 262 261 259 259 259 260 260 260 261 261 262 262 261 261 262 263 264 265 264 264 264 263 263 263 264 264 265 266 266 267 267 267 268 268 268 268 267 266 266 265 265 264 264 264 263 262 260 260 260 260 259 259 258 258 257 256 255 254 250 248 248 251 251 249 246 246 246 246 248 254 259 264 268 270 269
265 265 263 262 261 260 259 260 260 261 261 261 261 261 260 259 258 258 258 259 260 261 262 263 263 263 263 263 264 264 264 264 264 264 264 264 264 265 265 266 267 267 268 268 268 268 268 267 267 267 266 265 264 263 263 262 261 260 260 259 259 259 259 260 260 260 259 259 257 255 254 254 255 254 253 250 249 249 250 252 255 259 262 265 267 267
261 260 260 261 262 262 262 261 260 260 260 261 262 262 262 261 260 258 257 257 257 258 259 262 263 264 264 264 264 264 264 265 265 266 266 266 266 266 266 267 267 268 268 269 268 268 267 266 266 266 266 266 267 266 264 262 260 259 259 259 259 259 259 260 261 261 261 259 258 257 257 257 257 256 255 253 252 252 252 253 256 259 261 263 264 265
256 257 258 258 259 260 261 262 261 261 262 261 261 261 261 260 260 259 258 258 258 257 258 259 261 263 264 266 267 267 266 266 265 265 266 266 267 267 267 267 268 268 269 268 268 267 266 265 264 264 265 265 266 267 267 266 264 262 261 260 259 259 260 260 260 260 259 259 258 257 257 257 257 257 256 254 253 253 253 254 256 258 260 261 263 263
255 257 257 258 258 259 260 262 263 263 263 263 262 261 261 261 261 261 261 261 261 261 261 261 261 262 263 264 265 266 267 267 267 266 266 265 265 266 266 266 267 267 268 268 267 267 266 265 264 263 263 262 262 263 265 266 267 267 266 264 263 262 261 260 259 258 257 257 257 257 257 256 256 256 256 255 255 255 255 255 256 257 258 259 261 262
256 257 258 258 259 260 260 261 261 261 262 263 264 264 264 264 265 265 265 264 264 263 263 263 263 263 263 263 263 264 265 266 267 268 268 267 266 265 265 264 264 263 264 265 265 266 266 266 266 265 264 261 260 260 261 263 265 267 268 268 267 266 264 261 259 258 257 256 256 256 257 256 256 255 255 254 254 255 255 256 257 257 257 258 259 260
255 256 257 258 259 260 260 260 260 261 262 264 264 264 265 265 266 266 266 265 264 264 264 264 264 264 264 264 264 264 264 265 266 267 268 268 268 267 266 266 264 262 260 260 261 262 263 263 264 264 265 264 263 262 262 262 263 265 266 266 266 265 264 262 260 259 258 257 256 255 255 255 255 254 254 253 253 254 255 256 257 258 259 259 259 260
252 253 255 256 257 258 260 261 262 263 264 263 263 263 263 264 264 264 264 264 264 264 264 265 266 266 266 266 266 266 266 266 267 267 268 268 269 269 268 268 267 266 263 261 260 259 260 261 260 260 261 263 264 264 263 263 262 262 262 263 263 262 261 260 259 258 258 258 258 257 256 255 255 254 254 253 253 253 254 256 257 258 259 260 260 261
251 252 253 255 256 257 259 260 262 262 262 262 263 263 262 262 262 261 261 262 263 264 264 265 267 268 270 270 270 269 268 268 268 268 268 269 269 269 268 268 267 267 266 265 263 261 260 261 261 260 260 261 263 264 264 263 262 260 260 261 261 261 260 259 258 258 258 259 259 259 259 258 257 256 255 255 255 255 256 256 257 258 258 259 259 260
254 253 253 253 254 255 256 257 258 259 259 260 261 262 262 262 261 260 261 261 262 263 265 266 267 268 269 270 270 270 269 268 267 267 268 269 269 269 269 268 267 266 266 266 265 264 262 262 262 262 261 262 263 263 263 263 263 262 261 260 260 261 260 260 259 259 260 260 260 260 260 259 259 259 259 259 259 259 259 258 258 258 258 258 259 259
258 256 255 254 253 253 254 255 255 257 257 257 258 260 261 262 263 263 263 263 263 263 264 265 266 266 267 268 268 269 269 268 267 267 268 268 268 268 268 267 267 267 266 266 266 266 266 265 264 264 264 263 262 262 261 262 262 262 262 261 260 261 261 262 262 262 262 262 262 262 261 261 260 260 261 261 261 261 261 261 261 261 261 261 261 261
260 259 258 257 256 254 255 255 256 256 256 256 257 259 260 262 264 265 265 265 265 265 265 265 265 265 266 267 268 268 269 269 268 267 266 266 265 265 266 266 267 267 267 267 267 267 267 267 267 267 267 267 266 264 263 262 262 262 262 262 262 263 263 263 263 263 262 261 261 260 261 261 260 260 261 261 262 262 263 264 264 264 264 264 264 263
260 260 260 260 259 258 256 256 256 257 257 257 257 259 260 262 263 264 265 265 266 266 266 265 265 265 265 266 266 267 267 268 268 267 266 265 264 264 264 265 266 267 267 268 269 269 269 269 269 269 269 269 269 268 267 265 264 263 262 262 262 262 263 263 264 263 262 261 260 260 260 261 262 262 263 263 264 265 266 266 266 267 267 267 266 266
259 260 260 261 261 261 260 259 258 258 258 257 257 258 260 261 262 262 263 264 265 265 265 264 264 263 263 264 264 265 265 266 267 267 267 267 266 266 265 265 265 266 267 269 270 270 271 271 270 269 268 268 268 268 268 267 266 264 263 262 261 261 260 260 261 262 263 263 263 263 263 263 264 264 265 265 265 265 266 266 267 267 268 268 268 268
259 259 260 260 261 261 261 261 260 260 259 258 258 258 259 260 261 262 262 263 264 264 264 264 263 263 262 263 263 264 265 265 266 267 267 268 268 268 268 267 267 267 267 268 268 268 268 269 269 269 268 268 267 267 267 267 266 265 264 264 263 262 261 260 260 261 262 263 263 263 263 263 263 263 264 264 264 265 265 266 267 268 268 269 270 270
260 260 261 261 261 261 262 261 261 261 260 260 259 259 259 260 260 261 262 262 262 263 263 263 263 263 263 263 263 263 264 265 266 267 267 268 268 269 269 269 268 267 267 266 266 266 266 267 267 268 268 268 268 268 267 267 267 266 266 265 264 263 262 262 261 261 261 262 262 262 262 262 262 262 263 264 264 265 266 267 268 269 270 271 271 271
260 261 261 262 262 262 262 262 261 261 261 261 260 259 259 259 260 260 261 261 261 262 262 263 264 264 264 264 264 264 264 265 266 266 266 266 267 267 267 267 267 267 267 267 267 267 266 266 267 267 268 268 268 268 268 268 267 267 267 266 265 265 264 263 262 262 262 262 263 263 263 264 264 264 264 265 266 267 268 268 269 270 271 272 272 271
261 261 262 263 263 263 263 264 264 263 263 262 261 260 260 260 260 260 261 261 262 262 263 263 264 264 264 264 264 264 263 263 263 264 265 265 266 266 266 266 266 267 267 267 267 267 267 267 267 267 268 268 268 268 269 268 268 268 267 267 266 266 266 265 264 264 264 264 264 264 265 265 265 266 266 267 268 268 268 269 269 269 270 270 270 270
262 263 263 263 264 264 265 265 266 266 265 264 263 263 262 262 262 263 263 264 264 264 263 263 263 263 263 262 262 263 263 264 264 264 265 265 266 266 266 266 266 266 267 267 267 267 268 268 267 267 267 268 268 269 269 269 269 269 269 268 268 267 267 267 267 266 266 266 267 267 266 266 267 267 267 268 268 268 267 267 268 268 267 267 268 268
262 263 263 263 264 264 265 266 267 267 267 267 267 266 266 266 266 266 266 265 265 264 264 263 263 263 263 263 264 264 264 264 264 264 264 264 264 265 265 265 266 266 266 266 267 267 268 268 268 268 268 267 268 268 269 269 270 270 269 269 269 268 268 268 267 267 267 267 267 268 268 268 268 268 268 267 267 267 267 267 267 267 267 267 267 267
262 262 263 263 264 264 265 266 267 267 268 268 268 269 268 268 267 267 266 266 266 266 266 266 266 265 265 265 265 265 265 264 264 263 263 263 263 263 264 264 265 265 266 266 266 267 267 267 268 268 268 267 267 267 267 267 267 267 267 268 268 268 268 268 267 267 266 266 266 266 267 268 268 268 267 267 267 267 267 267 267 266 266 266 266 267
262 262 263 263 264 264 265 266 267 267 268 268 269 269 269 269 268 268 267 267 267 267 267 267 267 267 267 266 266 266 265 265 265 265 265 264 264 264 264 265 265 265 266 266 266 266 266 266 266 266 266 266 265 265 266 266 265 265 266 266 267 268 268 268 268 268 268 267 267 266 267 267 268 269 268 268 267 267 266 266 266 266 265 265 265 266
261 262 263 264 265 266 266 267 267 268 268 268 268 268 269 269 269 269 269 268 267 267 267 267 268 268 268 267 267 267 267 266 266 266 266 266 266 266 266 265 265 265 265 264 264 264 264 264 265 265 266 266 266 266 266 266 266 266 266 266 266 267 268 268 268 268 269 268 268 267 266 266 266 267 267 267 266 265 265 264 264 264 264 264 264 264
262 263 264 265 267 267 267 267 268 268 269 269 269 269 269 269 269 269 269 269 269 269 269 269 269 269 268 268 268 268 268 268 268 267 267 267 266 265 265 265 265 264 264 263 263 263 263 264 264 265 266 267 267 268 268 268 268 268 267 266 266 266 266 267 267 267 267 267 267 266 265 264 263 264 264 264 264 263 262 261 261 262 262 262 262 262